[[{"header":{"parameterUnit":"m.s-1","parameterCategory":1,"la1":30.2991,"la2":30.254,"lo1":-89.0895,"lo2":-89.0444,"dy":0.0017,"dx":0.0017,"nx":28,"ny":28,"refTime":"2025-01-14T03:00:00:Z","depth":0,"parameterNumber":2,"parameterNumberName":"U-component_of_WINDS"},"data":[0,0,0,0,0,0,0,0,0,0,0,0,0,0,0,0,0,0,0,0,0,0,0,0,0,0,0,0,0,0,0,0,0,0,0,0,0,0,0,0,0,0,0,0,0,0,0,0,0,0,0,0,0,0,0,0,0,0,-2.5852,-2.5853,0,-2.5909,-2.5909,-2.591,-2.5824,-2.5821,-2.5818,-2.5815,-2.5874,-2.5878,-2.5883,0,0,0,0,0,0,0,0,0,0,0,0,0,-2.5668,-2.5672,-2.5852,-2.5853,-2.5853,-2.5909,-2.591,-2.591,-2.5825,-2.5821,-2.5817,-2.5814,-2.5873,-2.5878,-2.5883,0,0,0,0,0,0,0,0,0,0,0,0,0,-2.5739,-2.5673,-2.5852,-2.5817,-2.5815,-2.5909,-2.591,-2.591,-2.5825,-2.5821,-2.5816,-2.5812,-2.5871,-2.5877,-2.5884,-2.6014,0,0,-2.5904,-2.5907,0,0,0,0,0,0,0,0,-2.5735,-2.5746,-2.5822,-2.582,-2.5817,-2.5855,-2.5866,-2.5945,-2.5826,-2.5821,-2.5815,-2.581,-2.5871,-2.5878,-2.5898,-2.6017,-2.602,-2.5904,-2.5908,-2.5911,-2.5913,0,0,0,0,0,0,0,-2.573,-2.5743,-2.5874,-2.5823,-2.582,-2.5798,-2.5804,-2.5881,-2.5871,-2.5821,-2.5815,-2.5823,-2.5869,-2.5892,-2.5899,-2.602,-2.5904,-2.591,-2.5914,-2.5917,-2.6248,-2.6253,0,0,0,0,0,0,-2.5729,-2.5739,-2.5873,-2.5876,-2.5764,-2.5805,-2.5811,-2.5847,-2.587,-2.5869,-2.5827,-2.5819,-2.5883,-2.5891,-2.5901,-2.6055,-2.5911,-2.5917,-2.5921,-2.6243,-2.6249,-2.6254,0,0,0,0,0,0,-2.5726,-2.5742,-2.587,-2.5806,-2.5821,-2.5813,-2.5855,-2.5851,-2.5873,-2.5874,-2.5872,-2.5852,-2.588,-2.5891,-2.5986,-2.6056,-2.592,-2.5926,-2.6237,-2.6245,-2.6252,-2.6365,0,0,0,0,0,0,-2.5721,-2.5741,-2.5792,-2.5808,-2.5824,-2.5956,-2.5859,-2.5855,-2.5885,-2.5875,-2.5897,-2.5896,-2.5877,-2.5977,-2.5993,-2.6062,-2.5931,-2.6231,-2.6241,-2.6249,-2.6355,-2.6376,-2.6393,0,0,0,0,0,-2.5715,-2.5822,-2.5795,-2.5811,-2.5887,-2.596,-2.597,-2.5945,-2.5891,-2.5941,-2.5941,-2.5896,-2.6045,-2.5988,-2.6005,-2.6077,-2.6227,-2.6238,-2.6249,-2.6347,-2.6372,-2.6392,0,0,0,0,0,0,-2.5814,-2.5823,-2.5793,-2.5909,-2.5934,-2.5946,-2.6008,-2.5972,-2.6014,-2.6003,-2.5971,-2.5976,-2.6079,-2.6087,-2.6022,-2.6204,-2.6127,-2.6142,-2.6196,-2.6219,-2.6237,-2.6234,-2.5937,0,0,0,0,0,-2.585,-2.5909,-2.5913,-2.6014,-2.6028,-2.6016,-2.6047,-2.6026,-2.6051,-2.6062,-2.6069,-2.6095,-2.6148,-2.6183,-2.6232,-2.6355,-2.6359,-2.6413,-2.6432,-2.6447,-2.6461,-2.6527,-2.6551,-2.629,-2.629,-2.629,0,0,-2.5924,-2.5935,-2.5975,-2.6034,-2.6052,-2.6113,-2.6026,-2.6095,-2.6141,-2.6072,-2.6163,-2.6168,-2.6195,-2.6305,-2.6354,-2.6315,-2.6533,-2.6461,-2.6473,-2.6479,-2.654,-2.6565,-2.6587,-2.6298,-2.6297,-2.6295,0,0,-2.609,-2.6105,-2.6191,-2.6209,-2.6236,-2.6227,-2.6248,-2.6264,-2.6265,-2.6355,-2.6305,-2.6358,-2.6449,-2.6471,-2.6493,-2.6665,-2.6625,-2.6681,-2.6781,-2.6845,-2.6865,-2.6883,-2.6945,-2.6968,-2.6695,-2.6695,-2.6695,0,-2.6179,-2.627,-2.624,-2.6312,-2.634,-2.6279,-2.6366,-2.6385,-2.6427,-2.6447,-2.6403,-2.6516,-2.653,-2.6643,-2.6685,-2.6705,-2.6728,-2.668,-2.6865,-2.6883,-2.6899,-2.6958,-2.6981,-2.6702,-2.6701,-2.6701,-2.67,0,-2.6378,-2.6442,-2.6508,-2.6549,-2.6584,-2.6663,-2.6644,-2.6682,-2.6657,-2.6652,-2.6744,-2.6758,-2.6808,-2.6833,-2.6809,-2.6943,-2.6918,-2.687,-2.6792,-2.6931,-2.6986,-2.7008,-2.6712,-2.6709,-2.6707,-2.6706,0,0,-2.6612,-2.6634,-2.6659,-2.6677,-2.6701,-2.6749,-2.6825,-2.6873,-2.6907,-2.6937,-2.7,-2.7077,-2.7032,-2.7058,-2.7035,-2.7091,-2.7227,-2.7036,-2.7036,-2.7072,-2.7376,-2.7414,-2.744,-2.7199,-2.7203,-2.7207,-2.7374,0,-2.6779,-2.6911,-2.6884,-2.7013,-2.7071,-2.7013,-2.7079,-2.71,-2.7097,-2.7146,-2.7141,-2.7197,-2.7133,-2.7148,-2.7201,-2.72,-2.7288,-2.7187,-2.7258,-2.7261,-2.7256,-2.7469,-2.7509,-2.7666,-2.7395,-2.7398,-2.7401,0,-2.6993,-2.703,-2.7165,-2.7178,-2.7201,-2.7261,-2.7303,-2.735,-2.7372,-2.7366,-2.7394,-2.736,-2.7434,-2.7353,-2.7455,-2.7387,-2.7414,-2.7418,-2.7423,-2.7431,-2.7342,-2.7484,-2.7716,-2.774,-2.7434,-2.7432,-2.7429,0,-2.7152,-2.7235,-2.7326,-2.7343,-2.7361,-2.7404,-2.7414,-2.7431,-2.7462,-2.7497,-2.7517,-2.7561,-2.7586,-2.762,-2.7599,-2.7542,-2.7705,-2.7622,-2.7702,-2.7703,-2.7741,-2.7739,-2.7983,-2.7755,-2.7755,-2.7755,-2.7754,0,-2.7342,-2.7427,-2.7398,-2.7455,-2.7547,-2.7515,-2.7607,-2.761,-2.7626,-2.7681,-2.7632,-2.7685,-2.7653,-2.7703,-2.7686,-2.7773,-2.7784,-2.7781,-2.7777,-2.7787,-2.7788,-2.7806,-2.7796,-2.7761,-2.7759,-2.7758,-2.7757,0,-2.7538,-2.7521,-2.7617,-2.7625,-2.7629,-2.7697,-2.7704,-2.7756,-2.7747,-2.7818,-2.7832,-2.782,-2.7876,-2.7857,-2.7917,-2.7906,-2.8017,-2.7997,-2.801,-2.8006,-2.8087,-2.8081,-2.8353,-2.8387,-2.8136,-2.8139,-2.8141,0,-2.7662,-2.7725,-2.774,-2.7773,-2.7786,-2.784,-2.7871,-2.784,-2.7874,-2.7903,-2.7952,-2.8003,-2.8043,-2.8135,-2.8131,-2.8177,-2.8158,-2.825,-2.8165,-2.8174,-2.8161,-2.8159,-2.8165,-2.8269,-2.8272,-2.8274,-2.8276,0,-2.7884,-2.7872,-2.7918,-2.796,-2.7998,-2.803,-2.8058,-2.8087,-2.8058,-2.8098,-2.8155,-2.8186,-2.8246,-2.8298,-2.8339,-2.8347,-2.8308,-2.8302,-2.8323,-2.8336,-2.8342,-2.8341,-2.8059,-2.8297,-2.8295,-2.8293,-2.8292,-2.8291,-2.8048,-2.8102,-2.812,-2.8172,-2.8189,-2.8216,-2.8265,-2.8262,-2.8309,-2.8356,-2.8334,-2.84,-2.8419,-2.8469,-2.8483,-2.8533,-2.8498,-2.8528,-2.8536,-2.8545,-2.8556,-2.8332,-2.854,-2.854,-2.8539,-2.8538,-2.8538,0,-2.8269,-2.8277,-2.8325,-2.8365,-2.8406,-2.8362,-2.839,-2.8427,-2.8486,-2.8506,-2.8546,-2.861,-2.866,-2.8659,-2.8704,-2.8745,-2.8727,-2.8758,-2.8756,-2.8758,-2.8584,-2.8562,-2.8771,-2.8771,-2.8771,-2.8771,-2.8771,-2.8771,-2.8389,-2.8477,-2.8467,-2.8564,-2.8571,-2.8635,-2.8654,-2.8678,-2.8694,-2.8768,-2.8809,-2.8807,-2.8819,-2.8865,-2.8908,-2.8906,-2.8926,-2.8964,-2.8956,-2.8794,-2.8771,-2.8749,-2.8728,-2.8968,-2.8968,-2.9125,-2.9127,-2.9128]},{"header":{"parameterUnit":"m.s-1","parameterCategory":1,"la1":30.2991,"la2":30.254,"lo1":-89.0895,"lo2":-89.0444,"dy":0.0017,"dx":0.0017,"nx":28,"ny":28,"refTime":"2025-01-14T03:00:00:Z","depth":0,"parameterNumber":3,"parameterNumberName":"V-component_of_WINDS"},"data":[0,0,0,0,0,0,0,0,0,0,0,0,0,0,0,0,0,0,0,0,0,0,0,0,0,0,0,0,0,0,0,0,0,0,0,0,0,0,0,0,0,0,0,0,0,0,0,0,0,0,0,0,0,0,0,0,0,0,-5.0727,-5.0728,0,-5.0827,-5.0828,-5.0829,-5.0763,-5.0759,-5.0756,-5.0754,-5.0852,-5.0857,-5.0862,0,0,0,0,0,0,0,0,0,0,0,0,0,-5.0471,-5.0476,-5.0726,-5.0728,-5.0729,-5.0827,-5.0828,-5.0829,-5.0763,-5.0759,-5.0756,-5.0752,-5.085,-5.0856,-5.0863,0,0,0,0,0,0,0,0,0,0,0,0,0,-5.0578,-5.0478,-5.0726,-5.0708,-5.0707,-5.0827,-5.0828,-5.083,-5.0764,-5.0759,-5.0755,-5.075,-5.0848,-5.0856,-5.0864,-5.1006,0,0,-5.0889,-5.0892,0,0,0,0,0,0,0,0,-5.0572,-5.0587,-5.0709,-5.0709,-5.0709,-5.0778,-5.0774,-5.0889,-5.0765,-5.0742,-5.0753,-5.0748,-5.0831,-5.084,-5.0869,-5.101,-5.1014,-5.089,-5.0895,-5.0898,-5.09,0,0,0,0,0,0,0,-5.0564,-5.0582,-5.0766,-5.0711,-5.0711,-5.0692,-5.0702,-5.0795,-5.0811,-5.0744,-5.0739,-5.0752,-5.0829,-5.0861,-5.087,-5.1016,-5.0889,-5.0897,-5.0902,-5.0905,-5.1276,-5.1281,0,0,0,0,0,0,-5.0559,-5.0577,-5.0763,-5.0769,-5.0628,-5.0701,-5.0712,-5.076,-5.0809,-5.0813,-5.0756,-5.0749,-5.0849,-5.0861,-5.0874,-5.1042,-5.0898,-5.0906,-5.091,-5.1272,-5.1278,-5.1283,0,0,0,0,0,0,-5.0554,-5.0577,-5.0759,-5.0672,-5.0693,-5.071,-5.0764,-5.0764,-5.0796,-5.0819,-5.082,-5.0786,-5.0846,-5.0862,-5.0973,-5.1044,-5.0909,-5.0917,-5.1266,-5.1273,-5.128,-5.138,0,0,0,0,0,0,-5.0547,-5.0575,-5.0631,-5.0674,-5.0698,-5.0859,-5.0769,-5.077,-5.0811,-5.0802,-5.0847,-5.085,-5.0844,-5.0961,-5.0981,-5.1053,-5.0923,-5.1259,-5.1269,-5.1278,-5.1371,-5.139,-5.1407,0,0,0,0,0,-5.0538,-5.0654,-5.0634,-5.0657,-5.0769,-5.0863,-5.0877,-5.0869,-5.0817,-5.0872,-5.0886,-5.0849,-5.1033,-5.0973,-5.0995,-5.1071,-5.1255,-5.1266,-5.1277,-5.1363,-5.1386,-5.1407,0,0,0,0,0,0,-5.0619,-5.066,-5.0638,-5.0772,-5.0815,-5.0852,-5.0921,-5.0895,-5.0952,-5.0942,-5.0927,-5.0938,-5.1054,-5.1073,-5.1006,-5.1209,-5.1135,-5.1152,-5.1193,-5.1216,-5.1233,-5.1227,-5.093,0,0,0,0,0,-5.0652,-5.0727,-5.0758,-5.0873,-5.0896,-5.0905,-5.0946,-5.0936,-5.0979,-5.0997,-5.1019,-5.1061,-5.1128,-5.1173,-5.1236,-5.1373,-5.138,-5.1435,-5.1453,-5.1468,-5.1482,-5.1554,-5.1578,-5.132,-5.132,-5.1319,0,0,-5.0722,-5.0753,-5.0802,-5.089,-5.0922,-5.0999,-5.0921,-5.1005,-5.1061,-5.1009,-5.1116,-5.1133,-5.1179,-5.1303,-5.1359,-5.1323,-5.1555,-5.1482,-5.1494,-5.15,-5.1568,-5.1593,-5.1614,-5.1327,-5.1326,-5.1325,0,0,-5.0888,-5.092,-5.1019,-5.1053,-5.1103,-5.1108,-5.1131,-5.1172,-5.1183,-5.129,-5.1251,-5.1316,-5.1433,-5.1467,-5.1499,-5.1675,-5.1643,-5.1696,-5.1791,-5.1861,-5.1882,-5.19,-5.1962,-5.1985,-5.171,-5.171,-5.171,0,-5.0968,-5.1084,-5.1073,-5.116,-5.1199,-5.1156,-5.1255,-5.1287,-5.1355,-5.1382,-5.134,-5.1485,-5.1512,-5.1643,-5.1686,-5.1714,-5.1739,-5.1691,-5.188,-5.1898,-5.1914,-5.1974,-5.1997,-5.1716,-5.1716,-5.1715,-5.1714,0,-5.1179,-5.1259,-5.1332,-5.14,-5.1447,-5.154,-5.1541,-5.159,-5.1574,-5.1583,-5.1691,-5.1722,-5.1791,-5.182,-5.1806,-5.1949,-5.1925,-5.1882,-5.1808,-5.1946,-5.2001,-5.2023,-5.1725,-5.1723,-5.1721,-5.172,0,0,-5.14,-5.146,-5.1487,-5.1516,-5.1567,-5.1628,-5.1717,-5.1785,-5.1826,-5.1873,-5.1947,-5.2045,-5.2006,-5.2042,-5.2031,-5.2093,-5.2229,-5.2042,-5.2043,-5.2075,-5.2387,-5.2419,-5.2446,-5.2207,-5.2212,-5.2215,-5.2383,0,-5.1569,-5.1727,-5.1719,-5.1866,-5.1939,-5.1898,-5.1975,-5.2013,-5.2023,-5.2085,-5.2094,-5.2164,-5.2107,-5.2129,-5.2188,-5.22,-5.2292,-5.2188,-5.2274,-5.2277,-5.2265,-5.2475,-5.2509,-5.2666,-5.2404,-5.2408,-5.2411,0,-5.1788,-5.1844,-5.1999,-5.2037,-5.2067,-5.2138,-5.2198,-5.2258,-5.2299,-5.2301,-5.2342,-5.232,-5.2407,-5.233,-5.245,-5.238,-5.2414,-5.2425,-5.2431,-5.2439,-5.2353,-5.2488,-5.2716,-5.274,-5.2445,-5.2442,-5.244,0,-5.1934,-5.2047,-5.2154,-5.218,-5.2228,-5.2278,-5.23,-5.2337,-5.2377,-5.2429,-5.2455,-5.2516,-5.255,-5.2596,-5.259,-5.2535,-5.2711,-5.2634,-5.2714,-5.2715,-5.2754,-5.2752,-5.2991,-5.2776,-5.2776,-5.2775,-5.2775,0,-5.2123,-5.2219,-5.222,-5.2286,-5.2391,-5.238,-5.2484,-5.25,-5.2533,-5.2599,-5.2566,-5.2629,-5.2617,-5.2679,-5.2674,-5.2773,-5.2788,-5.2791,-5.2789,-5.2795,-5.2795,-5.2818,-5.2807,-5.2782,-5.278,-5.2779,-5.2778,0,-5.2304,-5.2309,-5.2423,-5.2458,-5.2469,-5.2545,-5.2575,-5.2636,-5.2642,-5.2726,-5.2745,-5.2754,-5.2825,-5.2824,-5.2904,-5.2901,-5.3022,-5.3007,-5.3009,-5.3006,-5.3086,-5.3079,-5.3349,-5.3383,-5.3146,-5.3148,-5.315,0,-5.2426,-5.2499,-5.2542,-5.2585,-5.261,-5.268,-5.2721,-5.2711,-5.2755,-5.2807,-5.2861,-5.2929,-5.2983,-5.3098,-5.3111,-5.3171,-5.3157,-5.3248,-5.3166,-5.3169,-5.3158,-5.3154,-5.3161,-5.3264,-5.3267,-5.3269,-5.3271,0,-5.264,-5.2638,-5.27,-5.2763,-5.2813,-5.2861,-5.2906,-5.2942,-5.2936,-5.2987,-5.306,-5.3102,-5.3184,-5.3251,-5.3309,-5.3329,-5.3299,-5.3296,-5.3318,-5.3325,-5.3323,-5.3324,-5.3053,-5.329,-5.3288,-5.3287,-5.3286,-5.3285,-5.2794,-5.2857,-5.2897,-5.2967,-5.2999,-5.3041,-5.31,-5.3113,-5.3174,-5.3241,-5.3231,-5.3312,-5.3348,-5.3424,-5.3448,-5.351,-5.3478,-5.351,-5.3518,-5.3526,-5.3535,-5.3312,-5.352,-5.352,-5.3519,-5.3519,-5.3518,0,-5.3007,-5.303,-5.3094,-5.3158,-5.3212,-5.3179,-5.3226,-5.3273,-5.3345,-5.3383,-5.3437,-5.3519,-5.3584,-5.3601,-5.3663,-5.3708,-5.3696,-5.3725,-5.3721,-5.3726,-5.356,-5.3535,-5.3734,-5.3734,-5.3734,-5.3734,-5.3734,-5.3734,-5.3124,-5.3228,-5.323,-5.3349,-5.3371,-5.3451,-5.348,-5.3518,-5.3548,-5.3642,-5.3696,-5.3707,-5.3736,-5.3799,-5.3856,-5.3859,-5.3883,-5.3918,-5.3915,-5.376,-5.3738,-5.3718,-5.3694,-5.3923,-5.3923,-5.4076,-5.4077,-5.4079]}]]